Weather History for Cape Girardeau, MO

Change the Weather History Date:

Wednesday, April 17, 2013

  Actual Average Record
Temperature  
Mean Temperature 69 °F 58 °F  
Max Temperature 84 °F 69 °F 86 °F (1971)
Min Temperature 54 °F 46 °F 33 °F (1993)
Degree Days  
Heating Degree Days 0 8  
Month to date heating degree days 160 182  
Since 1 July heating degree days 4121 4238  
Cooling Degree Days 4 1  
Month to date cooling degree days 24 11  
Year to date cooling degree days 24 15  
Growing Degree Days 19 (Base 50)    
Moisture  
Dew Point 63 °F    
Average Humidity 74    
Maximum Humidity 93    
Minimum Humidity 55    
Precipitation  
Precipitation 0.00 in 0.14 in 0.88 in (1968)
Month to date precipitation 0.73 2.31  
Year to date precipitation 9.90 13.59  
Sea Level Pressure  
Sea Level Pressure 29.97 in    
Wind  
Wind Speed 9 mph (South)    
Max Wind Speed 23 mph    
Max Gust Speed 30 mph    
Visibility 8 miles    
Events Thunderstorm    
T = Trace of Precipitation, MM = Missing Value Source: NWS Daily Summary

Daily Weather History Graph

Daily Weather History Graph

Search for Another Location

Airport:

Trip Planner

Search our weather history database for the weather conditions in past years. The results will help you decide how hot, cold, wet, or windy it might be!

Date:

Astronomy

Apr. 17, 2013 Rise Set
Actual Time 6:20 AM CDT 7:35 PM CDT
Civil Twilight 5:53 AM CDT 8:02 PM CDT
Nautical Twilight 5:21 AM CDT 8:34 PM CDT
Astronomical Twilight 4:47 AM CDT 9:08 PM CDT
Moon 11:37 AM CDT (4/17) 1:10 AM CDT (4/17)
Length of Visible Light 14h 08m
Length of Day
13h 14m
Waxing Crescent, 42% of the Moon is Illuminated
Apr 17
Waxing Crescent
Apr 18
First Quarter
Apr 25
Full
May 2
Last Quarter
May 9
New

Hourly Weather History & Observations

Time (CDT) Temp. Heat Index Dew Point Humidity Pressure Visibility Wind Dir Wind Speed Gust Speed Precip Events Conditions
12:53 AM 57.0 °F - 53.1 °F 87% 30.08 in 7.0 mi NNE 9.2 mph - N/A   Overcast
1:53 AM 55.9 °F - 53.1 °F 90% 30.07 in 6.0 mi North 6.9 mph - N/A   Mostly Cloudy
2:53 AM 55.9 °F - 53.1 °F 90% 30.06 in 5.0 mi NNW 4.6 mph - N/A   Mostly Cloudy
3:53 AM 55.0 °F - 52.0 °F 89% 30.06 in 4.0 mi North 3.5 mph - N/A   Partly Cloudy
4:53 AM 54.0 °F - 52.0 °F 93% 30.06 in 4.0 mi North 4.6 mph - N/A   Mostly Cloudy
5:53 AM 55.0 °F - 53.1 °F 93% 30.07 in 5.0 mi North 3.5 mph - N/A   Overcast
6:53 AM 55.9 °F - 53.1 °F 90% 30.07 in 4.0 mi ENE 4.6 mph - N/A   Overcast
7:53 AM 57.9 °F - 54.0 °F 87% 30.06 in 4.0 mi Calm Calm - N/A   Overcast
8:53 AM 64.4 °F - 59.0 °F 83% 30.05 in 7.0 mi Calm Calm - N/A   Partly Cloudy
9:14 AM 66.2 °F - 62.6 °F 88% 30.04 in 7.0 mi SE 3.5 mph - N/A   Mostly Cloudy
9:53 AM 70.0 °F - 64.9 °F 84% 30.05 in 8.0 mi South 5.8 mph - N/A   Overcast
10:11 AM 71.6 °F - 64.4 °F 78% 30.05 in 8.0 mi South 6.9 mph - N/A   Overcast
10:53 AM 73.9 °F - 68.0 °F 82% 30.04 in 8.0 mi South 6.9 mph - N/A   Overcast
11:41 AM 77.0 °F - 69.8 °F 78% 30.03 in 9.0 mi South 12.7 mph - N/A   Mostly Cloudy
11:53 AM 77.0 °F - 69.1 °F 76% 30.02 in 10.0 mi South 11.5 mph - N/A   Mostly Cloudy
12:53 PM 78.1 °F - 70.0 °F 76% 29.99 in 10.0 mi South 8.1 mph - N/A   Mostly Cloudy
1:08 PM 80.6 °F 83.9 °F 69.8 °F 70% 29.99 in 10.0 mi South 10.4 mph - N/A Thunderstorm Mostly Cloudy
1:32 PM 78.8 °F - 69.8 °F 74% 29.98 in 9.0 mi South 10.4 mph - N/A   Mostly Cloudy
1:45 PM 78.8 °F - 69.8 °F 74% 29.97 in 10.0 mi SSW 9.2 mph - N/A Thunderstorm Scattered Clouds
1:53 PM 79.0 °F - 69.1 °F 72% 29.95 in 10.0 mi South 9.2 mph 17.3 mph N/A Thunderstorm Scattered Clouds
2:00 PM 78.8 °F - 69.8 °F 74% 29.96 in 10.0 mi South 10.4 mph - N/A   Scattered Clouds
2:53 PM 84.0 °F 86.5 °F 66.9 °F 56% 29.93 in 10.0 mi South 16.1 mph 27.6 mph N/A   Clear
3:53 PM 84.0 °F 86.5 °F 66.9 °F 56% 29.91 in 10.0 mi South 17.3 mph 26.5 mph N/A   Clear
4:53 PM 82.9 °F 85.0 °F 66.0 °F 56% 29.88 in 10.0 mi SSW 15.0 mph 23.0 mph N/A   Clear
5:53 PM 81.0 °F 82.7 °F 64.9 °F 58% 29.86 in 10.0 mi SSW 13.8 mph 29.9 mph N/A   Partly Cloudy
6:53 PM 81.0 °F 82.7 °F 64.9 °F 58% 29.84 in 10.0 mi South 12.7 mph - N/A   Partly Cloudy
7:53 PM 77.0 °F - 64.0 °F 64% 29.82 in 10.0 mi South 11.5 mph - N/A   Clear
8:53 PM 75.9 °F - 66.0 °F 71% 29.82 in 10.0 mi South 10.4 mph - N/A   Clear
9:53 PM 73.9 °F - 64.9 °F 73% 29.82 in 10.0 mi South 8.1 mph - N/A   Partly Cloudy
10:53 PM 73.9 °F - 64.0 °F 71% 29.81 in 10.0 mi South 11.5 mph - N/A   Partly Cloudy
11:53 PM 75.0 °F - 64.9 °F 71% 29.79 in 10.0 mi South 15.0 mph - N/A   Clear